TimeCDT,TemperatureF,Dew PointF,Humidity,Sea Level PressureIn,VisibilityMPH,Wind Direction,Wind SpeedMPH,Gust SpeedMPH,PrecipitationIn,Events,Conditions,WindDirDegrees,DateUTC
12:53 AM,37.0,33.1,86,30.08,10.0,Calm,Calm,-,N/A,,Clear,0,2013-03-15 05:53:00
1:53 AM,35.1,30.9,85,30.05,10.0,Calm,Calm,-,N/A,,Clear,0,2013-03-15 06:53:00
2:53 AM,33.1,30.0,89,30.04,10.0,Calm,Calm,-,N/A,,Clear,0,2013-03-15 07:53:00
3:53 AM,30.0,27.0,88,30.01,9.0,Calm,Calm,-,N/A,,Clear,0,2013-03-15 08:53:00
4:53 AM,32.0,28.9,88,29.99,9.0,Calm,Calm,-,N/A,,Clear,0,2013-03-15 09:53:00
5:53 AM,32.0,30.0,92,29.96,7.0,Calm,Calm,-,N/A,,Clear,0,2013-03-15 10:53:00
6:43 AM,30.2,28.4,93,29.94,1.8,Calm,Calm,-,N/A,,Clear,0,2013-03-15 11:43:00
6:53 AM,32.0,30.0,92,29.95,0.8,Calm,Calm,-,N/A,,Clear,0,2013-03-15 11:53:00
7:00 AM,33.8,30.2,87,29.94,1.5,Calm,Calm,-,N/A,,Clear,0,2013-03-15 12:00:00
7:06 AM,33.8,30.2,87,29.94,3.0,SSW,3.5,-,N/A,,Clear,200,2013-03-15 12:06:00
7:53 AM,32.0,30.0,92,29.93,6.0,SSE,3.5,-,N/A,,Clear,160,2013-03-15 12:53:00
8:53 AM,37.9,34.0,86,29.90,8.0,Calm,Calm,-,N/A,,Clear,0,2013-03-15 13:53:00
9:53 AM,46.9,37.9,71,29.87,10.0,Calm,Calm,-,N/A,,Clear,0,2013-03-15 14:53:00
10:53 AM,61.0,41.0,48,29.83,10.0,SSW,10.4,-,N/A,,Clear,200,2013-03-15 15:53:00
11:53 AM,66.9,43.0,42,29.79,10.0,SW,11.5,-,N/A,,Clear,220,2013-03-15 16:53:00
12:53 PM,73.9,41.0,30,29.76,10.0,SW,12.7,21.9,N/A,,Clear,220,2013-03-15 17:53:00
1:53 PM,79.0,39.9,25,29.73,10.0,West,12.7,21.9,N/A,,Clear,260,2013-03-15 18:53:00
2:53 PM,80.1,37.0,21,29.70,10.0,WSW,11.5,20.7,N/A,,Clear,240,2013-03-15 19:53:00
3:53 PM,81.0,35.1,19,29.68,10.0,West,9.2,-,N/A,,Clear,270,2013-03-15 20:53:00
4:53 PM,80.1,34.0,19,29.65,10.0,NW,8.1,-,N/A,,Clear,310,2013-03-15 21:53:00
5:53 PM,77.0,39.0,25,29.65,10.0,North,6.9,-,N/A,,Clear,360,2013-03-15 22:53:00
6:53 PM,73.0,37.9,28,29.65,10.0,North,4.6,-,N/A,,Clear,360,2013-03-15 23:53:00
7:53 PM,60.1,37.9,44,29.65,10.0,North,8.1,-,N/A,,Clear,10,2013-03-16 00:53:00
8:53 PM,55.0,37.9,53,29.68,10.0,North,8.1,-,N/A,,Clear,360,2013-03-16 01:53:00
9:53 PM,55.0,41.0,59,29.70,10.0,North,11.5,-,N/A,,Clear,360,2013-03-16 02:53:00
10:53 PM,54.0,42.1,64,29.72,10.0,North,15.0,-,N/A,,Partly Cloudy,350,2013-03-16 03:53:00
11:53 PM,51.1,42.1,71,29.74,10.0,North,16.1,-,N/A,,Clear,360,2013-03-16 04:53:00